Greenwood, MS

2:33 PM CDT on September 20, 2017 (GMT -0500)
Greenwood-Leflore

Weather History for KGWO - January, 2014

Change the Weather History Date:

Thursday, January 30, 2014

  Actual Average Record
Temperature  
Mean Temperature 31 °F 44 °F  
Max Temperature 48 °F 55 °F 76 °F (1975)
Min Temperature 13 °F 34 °F 3 °F (1966)
Degree Days  
Heating Degree Days 34 21  
Month to date heating degree days 844 654  
Since 1 July heating degree days 2055 1720  
Cooling Degree Days 0 0  
Month to date cooling degree days 0 0  
Year to date cooling degree days 0 0  
Moisture  
Dew Point 7 °F    
Average Humidity 48    
Maximum Humidity 80    
Minimum Humidity 16    
Precipitation  
Precipitation 0.00 in 0.16 in 1.00 in (1996)
Month to date precipitation 1.57 4.36  
Year to date precipitation 1.57 4.36  
Sea Level Pressure  
Sea Level Pressure 30.21 in    
Wind  
Wind Speed 7 mph (South)    
Max Wind Speed 15 mph    
Max Gust Speed 19 mph    
Visibility 10 miles    
Events      
T = Trace of Precipitation, MM = Missing Value Source: NWS Daily Summary

Daily Weather History Graph

Daily Weather History Graph

Search for Another Location

Airport or City:

Trip Planner

Search our weather history database for the weather conditions in past years. The results will help you decide how hot, cold, wet, or windy it might be!

Date:

Astronomy

Jan. 30, 2014 Rise Set
Actual Time 6:57 AM CST 5:29 PM CST
Civil Twilight 6:31 AM CST 5:56 PM CST
Nautical Twilight 6:01 AM CST 6:25 PM CST
Astronomical Twilight 5:32 AM CST 6:55 PM CST
Moon 6:25 AM CST (1/30) 5:38 PM CST (1/30)
Length of Visible Light 11h 24m
Length of Day
10h 32m
Waning Crescent, 0% of the Moon is Illuminated
Jan 30
Waning Crescent
Jan 30
New
Feb 6
First Quarter
Feb 14
Full
Feb 22
Last Quarter

Hourly Weather History & Observations

Time (CST) Temp. Windchill Dew Point Humidity Pressure Visibility Wind Dir Wind Speed Gust Speed Precip Events Conditions
12:53 AM 15.1 °F - 8.1 °F 74% 30.34 in 10.0 mi Calm Calm - N/A   Clear
1:53 AM 14.0 °F - 8.1 °F 77% 30.34 in 10.0 mi Calm Calm - N/A   Clear
2:53 AM 12.9 °F 6.9 °F 7.0 °F 77% 30.34 in 10.0 mi ENE 3.5 mph - N/A   Clear
3:53 AM 15.1 °F 9.4 °F 7.0 °F 70% 30.32 in 10.0 mi East 3.5 mph - N/A   Clear
4:53 AM 16.0 °F - 7.0 °F 68% 30.30 in 10.0 mi Calm Calm - N/A   Clear
5:53 AM 17.1 °F 11.7 °F 7.0 °F 65% 30.31 in 10.0 mi SW 3.5 mph - N/A   Clear
6:53 AM 17.1 °F 6.6 °F 8.1 °F 68% 30.31 in 10.0 mi SSE 8.1 mph - N/A   Clear
7:53 AM 21.9 °F 10.4 °F 10.0 °F 60% 30.29 in 10.0 mi South 11.5 mph - N/A   Clear
8:53 AM 27.0 °F 19.5 °F 10.0 °F 49% 30.32 in 10.0 mi SSE 6.9 mph - N/A   Clear
9:53 AM 32.0 °F 23.6 °F 5.0 °F 32% 30.31 in 10.0 mi South 10.4 mph - N/A   Clear
10:53 AM 37.9 °F 30.5 °F 3.9 °F 24% 30.26 in 10.0 mi South 11.5 mph - N/A   Clear
11:53 AM 39.9 °F 32.9 °F -0.0 °F 19% 30.23 in 10.0 mi South 11.5 mph - N/A   Clear
12:53 PM 44.1 °F 37.7 °F 1.0 °F 17% 30.17 in 10.0 mi South 12.7 mph - N/A   Clear
1:53 PM 46.0 °F 41.4 °F 3.9 °F 18% 30.14 in 10.0 mi SW 9.2 mph - N/A   Clear
2:53 PM 46.9 °F - 3.0 °F 16% 30.11 in 10.0 mi SW 9.2 mph - N/A   Clear
3:53 PM 48.0 °F - 5.0 °F 17% 30.10 in 10.0 mi SW 10.4 mph - N/A   Clear
4:53 PM 44.1 °F 38.1 °F 7.0 °F 22% 30.08 in 10.0 mi South 11.5 mph - N/A   Clear
5:53 PM 37.0 °F 30.4 °F 9.0 °F 31% 30.08 in 10.0 mi South 9.2 mph - N/A   Clear
6:53 PM 39.0 °F 32.3 °F 8.1 °F 28% 30.08 in 10.0 mi SSE 10.4 mph - N/A   Clear
7:53 PM 39.0 °F 32.3 °F 9.0 °F 29% 30.08 in 10.0 mi South 10.4 mph - N/A   Clear
8:53 PM 39.0 °F 32.8 °F 10.0 °F 30% 30.08 in 10.0 mi South 9.2 mph - N/A   Clear
9:53 PM 36.0 °F 31.1 °F 12.0 °F 37% 30.10 in 10.0 mi SSE 5.8 mph - N/A   Partly Cloudy
10:53 PM 32.0 °F - 14.0 °F 48% 30.12 in 10.0 mi Calm Calm - N/A   Mostly Cloudy
11:53 PM 35.1 °F 31.0 °F 12.0 °F 39% 30.12 in 10.0 mi SSE 4.6 mph - N/A   Clear